"read_dt","SO2 (ppb)","flags","PMT voltage (V)","lamp voltage (V)","lamp intensity (Hz)","internal temp (C)","react chamber temp (C)","sample flow (l/min)","pres (mmHg)","SO2 bkg (ppb)","SO2 coefficient"
2014-08-25 00:00:00,1781E-3,5C000000,-0724,0828,12161,030.8,045.6,0.473,733.8,01.19,0.508
2014-08-25 00:01:00,1766E-3,5C000000,-0724,0828,12243,030.8,045.6,0.473,733.9,01.19,0.508
2014-08-25 00:02:00,1862E-3,5C000000,-0724,0827,12213,030.8,045.6,0.472,733.9,01.19,0.508
2014-08-25 00:03:00,1828E-3,5C000000,-0724,0827,12189,030.8,045.6,0.472,733.9,01.19,0.508
2014-08-25 00:04:00,1755E-3,5C000000,-0724,0827,11995,030.8,045.6,0.473,733.9,01.19,0.508
2014-08-25 00:05:00,1759E-3,5C000000,-0724,0827,12204,030.8,045.6,0.473,733.9,01.19,0.508
2014-08-25 00:06:00,1763E-3,5C000000,-0724,0827,12187,030.8,045.6,0.472,733.8,01.19,0.508
2014-08-25 00:07:00,1876E-3,5C000000,-0724,0828,12169,030.8,045.6,0.472,733.9,01.19,0.508
2014-08-25 00:08:00,1790E-3,5C000000,-0724,0827,12195,030.8,045.6,0.473,733.8,01.19,0.508
2014-08-25 00:09:00,1784E-3,5C000000,-0724,0827,12267,030.8,045.6,0.473,733.8,01.19,0.508
2014-08-25 00:10:00,1978E-3,5C000000,-0724,0828,12218,030.8,045.6,0.472,733.8,01.19,0.508
2014-08-25 00:11:00,1858E-3,5C000000,-0724,0827,12147,030.8,045.6,0.472,733.8,01.19,0.508
2014-08-25 00:12:00,1864E-3,5C000000,-0724,0827,12231,030.8,045.6,0.473,733.9,01.19,0.508
2014-08-25 00:13:00,1810E-3,5C000000,-0724,0828,12306,030.8,045.6,0.473,733.9,01.19,0.508
2014-08-25 00:14:00,1757E-3,5C000000,-0724,0827,12258,030.8,045.6,0.472,734.0,01.19,0.508
2014-08-25 00:15:00,1698E-3,5C000000,-0724,0828,12061,030.9,045.6,0.472,733.9,01.19,0.508
2014-08-25 00:16:00,1780E-3,5C000000,-0724,0827,12148,030.9,045.6,0.472,733.9,01.19,0.508
2014-08-25 00:17:00,1834E-3,5C000000,-0724,0828,12128,030.9,045.6,0.473,733.8,01.19,0.508
2014-08-25 00:18:00,1798E-3,5C000000,-0724,0827,12023,030.9,045.6,0.473,733.8,01.19,0.508
2014-08-25 00:19:00,1754E-3,5C000000,-0724,0827,12184,030.9,045.6,0.472,733.8,01.19,0.508
2014-08-25 00:20:00,1740E-3,5C000000,-0724,0827,12274,030.9,045.6,0.472,733.8,01.19,0.508
2014-08-25 00:21:00,1867E-3,5C000000,-0724,0827,12387,030.9,045.5,0.472,733.8,01.19,0.508
2014-08-25 00:22:00,1833E-3,5C000000,-0724,0828,12294,030.9,045.6,0.473,733.9,01.19,0.508
2014-08-25 00:23:00,1715E-3,5C000000,-0724,0827,12015,030.9,045.6,0.472,733.7,01.19,0.508
2014-08-25 00:24:00,1887E-3,5C000000,-0724,0828,12355,030.9,045.6,0.472,733.9,01.19,0.508
2014-08-25 00:25:00,1849E-3,5C000000,-0724,0827,12241,030.9,045.6,0.472,733.8,01.19,0.508
2014-08-25 00:26:00,1898E-3,5C000000,-0724,0828,12314,030.9,045.6,0.473,733.8,01.19,0.508
2014-08-25 00:27:00,1836E-3,5C000000,-0724,0827,12185,030.9,045.6,0.472,733.8,01.19,0.508
2014-08-25 00:28:00,1805E-3,5C000000,-0724,0827,12185,030.9,045.6,0.472,733.7,01.19,0.508
2014-08-25 00:29:00,1806E-3,5C000000,-0724,0827,12322,030.9,045.6,0.472,733.8,01.19,0.508
2014-08-25 00:30:00,1829E-3,5C000000,-0724,0827,12224,030.9,045.6,0.472,733.6,01.19,0.508
2014-08-25 00:31:00,1893E-3,5C000000,-0724,0828,12092,030.9,045.6,0.472,733.6,01.19,0.508
2014-08-25 00:32:00,1658E-3,5C000000,-0724,0828,12138,030.9,045.6,0.472,733.7,01.19,0.508
2014-08-25 00:33:00,1649E-3,5C000000,-0724,0828,12179,030.9,045.6,0.472,733.7,01.19,0.508
2014-08-25 00:34:00,1815E-3,5C000000,-0724,0827,12338,030.9,045.6,0.472,733.8,01.19,0.508
2014-08-25 00:35:00,1652E-3,5C000000,-0724,0828,11870,030.9,045.6,0.473,733.7,01.19,0.508
2014-08-25 00:36:00,1798E-3,5C000000,-0724,0827,12212,030.9,045.6,0.472,733.7,01.19,0.508
2014-08-25 00:37:00,1844E-3,5C000000,-0724,0827,12300,030.9,045.6,0.472,733.6,01.19,0.508
2014-08-25 00:38:00,1766E-3,5C000000,-0724,0827,12291,030.9,045.6,0.472,733.6,01.19,0.508
2014-08-25 00:39:00,1762E-3,5C000000,-0724,0827,12256,030.9,045.6,0.473,733.6,01.19,0.508
2014-08-25 00:40:00,1887E-3,5C000000,-0724,0826,12172,030.9,045.6,0.472,733.6,01.19,0.508
2014-08-25 00:41:00,1773E-3,5C000000,-0724,0827,12320,030.9,045.6,0.472,733.8,01.19,0.508
2014-08-25 00:42:00,1790E-3,5C000000,-0724,0827,12051,030.9,045.6,0.472,733.7,01.19,0.508
2014-08-25 00:43:00,1708E-3,5C000000,-0724,0827,12195,030.9,045.6,0.472,733.8,01.19,0.508
2014-08-25 00:44:00,1768E-3,5C000000,-0724,0828,12225,030.9,045.6,0.472,733.7,01.19,0.508
2014-08-25 00:45:00,1815E-3,5C000000,-0724,0827,12304,030.9,045.6,0.472,733.7,01.19,0.508
2014-08-25 00:46:00,1877E-3,5C000000,-0724,0828,12089,030.9,045.6,0.472,733.8,01.19,0.508
2014-08-25 00:47:00,1837E-3,5C000000,-0724,0828,12223,030.9,045.6,0.472,733.7,01.19,0.508
2014-08-25 00:48:00,1906E-3,5C000000,-0724,0827,12209,030.9,045.6,0.473,733.6,01.19,0.508
2014-08-25 00:49:00,1805E-3,5C000000,-0724,0827,12020,030.9,045.6,0.472,733.7,01.19,0.508
2014-08-25 00:50:00,1862E-3,5C000000,-0724,0828,12128,030.9,045.6,0.472,733.7,01.19,0.508
2014-08-25 00:51:00,1944E-3,5C000000,-0724,0827,12257,030.9,045.6,0.472,733.6,01.19,0.508
2014-08-25 00:52:00,1854E-3,5C000000,-0724,0828,12154,030.9,045.6,0.472,733.8,01.19,0.508
2014-08-25 00:53:00,1814E-3,5C000000,-0724,0827,12179,030.9,045.6,0.473,733.6,01.19,0.508
2014-08-25 00:54:00,1793E-3,5C000000,-0724,0827,12293,030.9,045.6,0.472,733.6,01.19,0.508
2014-08-25 00:55:00,1893E-3,5C000000,-0724,0827,12217,030.9,045.6,0.472,733.7,01.19,0.508
2014-08-25 00:56:00,1860E-3,5C000000,-0724,0827,12308,030.9,045.6,0.472,733.6,01.19,0.508
2014-08-25 00:57:00,1725E-3,5C000000,-0724,0828,12132,030.9,045.6,0.473,733.6,01.19,0.508
2014-08-25 00:58:00,1776E-3,5C000000,-0724,0827,12211,030.9,045.6,0.472,733.8,01.19,0.508
2014-08-25 00:59:00,1861E-3,5C000000,-0724,0827,12263,030.9,045.6,0.472,733.7,01.19,0.508
2014-08-25 01:00:00,1942E-3,5C000000,-0724,0828,12249,030.9,045.6,0.472,733.7,01.19,0.508
2014-08-25 01:01:00,1806E-3,5C000000,-0724,0827,12237,030.9,045.6,0.472,733.8,01.19,0.508
2014-08-25 01:02:00,1741E-3,5C000000,-0724,0827,12185,030.9,045.6,0.472,733.7,01.19,0.508
2014-08-25 01:03:00,1829E-3,5C000000,-0724,0828,12108,030.9,045.6,0.472,733.7,01.19,0.508
2014-08-25 01:04:00,1883E-3,5C000000,-0724,0828,11998,030.9,045.6,0.472,733.6,01.19,0.508
2014-08-25 01:05:00,1743E-3,5C000000,-0724,0827,12173,031.0,045.6,0.472,733.6,01.19,0.508
2014-08-25 01:06:00,1810E-3,5C000000,-0724,0827,12237,031.0,045.6,0.472,733.7,01.19,0.508
2014-08-25 01:07:00,1742E-3,5C000000,-0724,0828,12402,030.9,045.6,0.472,733.6,01.19,0.508
2014-08-25 01:08:00,1858E-3,5C000000,-0724,0828,12039,031.0,045.6,0.472,733.6,01.19,0.508
2014-08-25 01:09:00,1859E-3,5C000000,-0724,0828,12200,030.9,045.6,0.472,733.7,01.19,0.508
2014-08-25 01:10:00,1722E-3,5C000000,-0724,0828,12204,031.0,045.6,0.472,733.7,01.19,0.508
2014-08-25 01:11:00,1834E-3,5C000000,-0724,0827,11964,031.0,045.6,0.473,733.8,01.19,0.508
2014-08-25 01:12:00,1811E-3,5C000000,-0724,0828,12288,031.0,045.6,0.472,733.7,01.19,0.508
2014-08-25 01:13:00,1741E-3,5C000000,-0724,0828,12175,031.0,045.6,0.472,733.6,01.19,0.508
2014-08-25 01:14:00,1846E-3,5C000000,-0724,0827,12066,031.0,045.6,0.472,733.6,01.19,0.508
2014-08-25 01:15:00,1908E-3,5C000000,-0724,0827,12322,031.0,045.6,0.472,733.7,01.19,0.508
2014-08-25 01:16:00,1723E-3,5C000000,-0724,0827,12221,031.0,045.6,0.472,733.6,01.19,0.508
2014-08-25 01:17:00,1668E-3,5C000000,-0724,0827,12378,031.0,045.6,0.472,733.6,01.19,0.508
2014-08-25 01:18:00,1932E-3,5C000000,-0724,0828,12201,031.0,045.6,0.472,733.7,01.19,0.508
2014-08-25 01:19:00,1806E-3,5C000000,-0724,0828,12184,031.0,045.6,0.472,733.7,01.19,0.508
2014-08-25 01:20:00,1813E-3,5C000000,-0724,0828,12364,031.0,045.6,0.472,733.6,01.19,0.508
2014-08-25 01:21:00,1846E-3,5C000000,-0724,0828,12113,031.0,045.6,0.472,733.6,01.19,0.508
2014-08-25 01:22:00,1774E-3,5C000000,-0724,0827,12178,031.0,045.6,0.472,733.7,01.19,0.508
2014-08-25 01:23:00,1917E-3,5C000000,-0724,0827,12190,031.0,045.6,0.472,733.6,01.19,0.508
2014-08-25 01:24:00,1831E-3,5C000000,-0724,0828,12335,031.0,045.6,0.472,733.6,01.19,0.508
2014-08-25 01:25:00,1863E-3,5C000000,-0724,0826,12172,031.0,045.6,0.472,733.6,01.19,0.508
2014-08-25 01:26:00,1732E-3,5C000000,-0724,0827,12150,031.0,045.6,0.472,733.6,01.19,0.508
2014-08-25 01:27:00,1863E-3,5C000000,-0724,0827,12109,031.0,045.6,0.472,733.6,01.19,0.508
2014-08-25 01:28:00,1814E-3,5C000000,-0724,0827,12116,031.0,045.6,0.472,733.6,01.19,0.508
2014-08-25 01:29:00,1688E-3,5C000000,-0724,0827,12072,031.0,045.6,0.472,733.7,01.19,0.508
2014-08-25 01:30:00,1908E-3,5C000000,-0724,0827,12189,031.0,045.6,0.472,733.6,01.19,0.508
2014-08-25 01:31:00,1898E-3,5C000000,-0724,0827,12108,031.0,045.6,0.472,733.4,01.19,0.508
2014-08-25 01:32:00,1762E-3,5C000000,-0724,0828,12171,031.0,045.6,0.472,733.4,01.19,0.508
2014-08-25 01:33:00,1811E-3,5C000000,-0724,0828,12168,031.0,045.6,0.472,733.5,01.19,0.508
2014-08-25 01:34:00,1786E-3,5C000000,-0724,0828,12303,031.0,045.6,0.472,733.4,01.19,0.508
2014-08-25 01:35:00,1818E-3,5C000000,-0724,0828,12294,031.1,045.6,0.472,733.5,01.19,0.508
2014-08-25 01:36:00,1915E-3,5C000000,-0724,0827,12355,031.1,045.6,0.472,733.3,01.19,0.508
2014-08-25 01:37:00,1925E-3,5C000000,-0724,0828,12249,031.1,045.6,0.472,733.3,01.19,0.508
2014-08-25 01:38:00,1698E-3,5C000000,-0724,0827,11982,031.1,045.6,0.472,733.4,01.19,0.508
2014-08-25 01:39:00,1808E-3,5C000000,-0724,0828,12189,031.1,045.6,0.472,733.5,01.19,0.508
2014-08-25 01:40:00,1722E-3,5C000000,-0724,0828,12310,031.1,045.6,0.472,733.5,01.19,0.508
2014-08-25 01:41:00,1884E-3,5C000000,-0724,0828,12124,031.1,045.6,0.472,733.3,01.19,0.508
2014-08-25 01:42:00,1742E-3,5C000000,-0724,0828,12048,031.1,045.6,0.472,733.4,01.19,0.508
2014-08-25 01:43:00,1742E-3,5C000000,-0724,0828,12262,031.1,045.6,0.472,733.5,01.19,0.508
2014-08-25 01:44:00,1783E-3,5C000000,-0724,0828,12253,031.1,045.6,0.472,733.4,01.19,0.508
2014-08-25 01:45:00,1796E-3,5C000000,-0724,0828,12101,031.1,045.6,0.472,733.3,01.19,0.508
2014-08-25 01:46:00,1776E-3,5C000000,-0724,0827,12083,031.1,045.6,0.472,733.2,01.19,0.508
2014-08-25 01:47:00,1789E-3,5C000000,-0724,0828,12349,031.1,045.6,0.472,733.5,01.19,0.508
2014-08-25 01:48:00,1841E-3,5C000000,-0724,0827,12336,031.1,045.6,0.472,733.2,01.19,0.508
2014-08-25 01:49:00,1767E-3,5C000000,-0724,0828,12330,031.1,045.6,0.471,733.3,01.19,0.508
2014-08-25 01:50:00,1804E-3,5C000000,-0724,0828,12372,031.1,045.6,0.472,733.2,01.19,0.508
2014-08-25 01:51:00,1798E-3,5C000000,-0724,0827,12351,031.1,045.6,0.472,733.1,01.19,0.508
2014-08-25 01:52:00,1735E-3,5C000000,-0724,0828,11965,031.1,045.6,0.472,733.2,01.19,0.508
2014-08-25 01:53:00,1873E-3,5C000000,-0724,0828,12289,031.2,045.6,0.472,733.2,01.19,0.508
2014-08-25 01:54:00,1833E-3,5C000000,-0724,0827,12317,031.2,045.6,0.471,733.2,01.19,0.508
2014-08-25 01:55:00,1739E-3,5C000000,-0724,0828,12123,031.2,045.6,0.471,733.2,01.19,0.508
2014-08-25 01:56:00,1821E-3,5C000000,-0724,0827,12181,031.2,045.6,0.472,733.2,01.19,0.508
2014-08-25 01:57:00,1794E-3,5C000000,-0724,0827,12331,031.2,045.6,0.472,733.2,01.19,0.508
2014-08-25 01:58:00,1878E-3,5C000000,-0724,0827,12110,031.2,045.6,0.472,733.3,01.19,0.508
2014-08-25 01:59:00,1823E-3,5C000000,-0724,0826,12210,031.2,045.6,0.472,733.4,01.19,0.508
2014-08-25 02:00:00,1837E-3,5C000000,-0724,0827,12218,031.2,045.6,0.471,733.2,01.19,0.508
2014-08-25 02:01:00,1809E-3,5C000000,-0724,0827,12269,031.2,045.6,0.471,733.2,01.19,0.508
2014-08-25 02:02:00,1794E-3,5C000000,-0724,0828,12083,031.2,045.6,0.471,733.1,01.19,0.508
2014-08-25 02:03:00,2001E-3,5C000000,-0724,0828,12000,031.2,045.6,0.472,733.1,01.19,0.508
2014-08-25 02:04:00,1812E-3,5C000000,-0724,0827,12263,031.2,045.6,0.472,733.2,01.19,0.508
2014-08-25 02:05:00,1883E-3,5C000000,-0724,0827,12226,031.3,045.6,0.472,733.2,01.19,0.508
2014-08-25 02:06:00,1702E-3,5C000000,-0724,0826,12220,031.2,045.6,0.471,733.4,01.19,0.508
2014-08-25 02:07:00,1775E-3,5C000000,-0724,0827,12433,031.2,045.6,0.471,733.2,01.19,0.508
2014-08-25 02:08:00,1814E-3,5C000000,-0724,0828,12208,031.3,045.6,0.471,733.3,01.19,0.508
2014-08-25 02:09:00,1815E-3,5C000000,-0724,0827,12304,031.3,045.6,0.472,733.1,01.19,0.508
2014-08-25 02:10:00,1849E-3,5C000000,-0724,0828,12206,031.3,045.6,0.472,733.2,01.19,0.508
2014-08-25 02:11:00,1778E-3,5C000000,-0724,0827,12107,031.3,045.6,0.472,733.3,01.19,0.508
2014-08-25 02:12:00,1781E-3,5C000000,-0724,0827,12367,031.3,045.6,0.472,733.4,01.19,0.508
2014-08-25 02:13:00,1729E-3,5C000000,-0724,0828,12315,031.3,045.6,0.471,733.4,01.19,0.508
2014-08-25 02:14:00,1747E-3,5C000000,-0724,0828,12188,031.3,045.6,0.471,733.3,01.19,0.508
2014-08-25 02:15:00,1697E-3,5C000000,-0724,0828,12263,031.3,045.6,0.471,733.1,01.19,0.508
2014-08-25 02:16:00,1854E-3,5C000000,-0724,0827,12164,031.3,045.6,0.471,733.2,01.19,0.508
2014-08-25 02:17:00,1830E-3,5C000000,-0724,0827,12282,031.3,045.6,0.472,733.2,01.19,0.508
2014-08-25 02:18:00,1823E-3,5C000000,-0724,0827,12290,031.3,045.6,0.472,733.3,01.19,0.508
2014-08-25 02:19:00,1813E-3,5C000000,-0724,0827,12260,031.3,045.6,0.472,733.1,01.19,0.508
2014-08-25 02:20:00,1716E-3,5C000000,-0724,0827,12191,031.4,045.6,0.472,733.2,01.19,0.508
2014-08-25 02:21:00,1768E-3,5C000000,-0724,0827,12083,031.4,045.6,0.471,733.3,01.19,0.508
2014-08-25 02:22:00,1842E-3,5C000000,-0724,0828,12204,031.4,045.6,0.471,733.2,01.19,0.508
2014-08-25 02:23:00,1835E-3,5C000000,-0724,0828,12204,031.4,045.6,0.471,733.2,01.19,0.508
2014-08-25 02:24:00,1691E-3,5C000000,-0724,0827,12002,031.4,045.6,0.471,733.3,01.19,0.508
2014-08-25 02:25:00,1830E-3,5C000000,-0724,0827,12291,031.4,045.6,0.471,733.3,01.19,0.508
2014-08-25 02:26:00,1662E-3,5C000000,-0724,0827,12031,031.4,045.6,0.471,733.3,01.19,0.508
2014-08-25 02:27:00,1838E-3,5C000000,-0724,0828,12347,031.4,045.6,0.472,733.2,01.19,0.508
2014-08-25 02:28:00,1723E-3,5C000000,-0724,0828,12335,031.4,045.6,0.472,733.2,01.19,0.508
2014-08-25 02:29:00,1664E-3,5C000000,-0724,0828,12171,031.4,045.6,0.471,733.3,01.19,0.508
2014-08-25 02:30:00,1844E-3,5C000000,-0724,0827,12231,031.5,045.6,0.471,733.1,01.19,0.508
2014-08-25 02:31:00,1670E-3,5C000000,-0724,0827,12121,031.4,045.6,0.471,733.1,01.19,0.508
2014-08-25 02:32:00,1736E-3,5C000000,-0724,0828,12328,031.4,045.6,0.471,733.1,01.19,0.508
2014-08-25 02:33:00,1727E-3,5C000000,-0724,0827,12298,031.5,045.6,0.471,733.1,01.19,0.508
2014-08-25 02:34:00,1861E-3,5C000000,-0724,0827,12146,031.5,045.6,0.471,733.0,01.19,0.508
2014-08-25 02:35:00,1751E-3,5C000000,-0724,0827,12089,031.5,045.6,0.471,733.1,01.19,0.508
2014-08-25 02:36:00,1778E-3,5C000000,-0724,0827,12156,031.5,045.6,0.471,733.1,01.19,0.508
2014-08-25 02:37:00,1719E-3,5C000000,-0724,0828,12271,031.5,045.6,0.471,733.0,01.19,0.508
2014-08-25 02:38:00,1771E-3,5C000000,-0724,0827,11965,031.5,045.6,0.471,733.1,01.19,0.508
2014-08-25 02:39:00,1785E-3,5C000000,-0724,0828,12348,031.5,045.6,0.471,733.1,01.19,0.508
2014-08-25 02:40:00,1700E-3,5C000000,-0724,0826,12221,031.5,045.6,0.471,733.1,01.19,0.508
2014-08-25 02:41:00,1763E-3,5C000000,-0724,0827,12372,031.5,045.6,0.471,733.2,01.19,0.508
2014-08-25 02:42:00,1852E-3,5C000000,-0724,0827,12372,031.5,045.6,0.471,733.1,01.19,0.508
2014-08-25 02:43:00,1771E-3,5C000000,-0724,0827,12302,031.5,045.6,0.471,733.2,01.19,0.508
2014-08-25 02:44:00,1923E-3,5C000000,-0724,0827,12095,031.5,045.6,0.471,733.2,01.19,0.508
2014-08-25 02:45:00,1769E-3,5C000000,-0724,0827,12252,031.5,045.6,0.471,733.2,01.19,0.508
2014-08-25 02:46:00,1972E-3,5C000000,-0724,0826,12249,031.5,045.6,0.471,733.1,01.19,0.508
2014-08-25 02:47:00,1856E-3,5C000000,-0724,0827,12393,031.6,045.6,0.471,733.1,01.19,0.508
2014-08-25 02:48:00,1682E-3,5C000000,-0724,0827,12329,031.6,045.6,0.471,733.1,01.19,0.508
2014-08-25 02:49:00,1680E-3,5C000000,-0724,0827,12314,031.6,045.6,0.471,733.1,01.19,0.508
2014-08-25 02:50:00,1820E-3,5C000000,-0724,0828,12083,031.6,045.6,0.471,733.0,01.19,0.508
2014-08-25 02:51:00,1697E-3,5C000000,-0724,0827,12269,031.6,045.6,0.471,733.1,01.19,0.508
2014-08-25 02:52:00,1804E-3,5C000000,-0724,0829,12203,031.6,045.6,0.471,733.1,01.19,0.508
2014-08-25 02:53:00,1782E-3,5C000000,-0724,0827,11982,031.6,045.6,0.471,733.0,01.19,0.508
2014-08-25 02:54:00,1824E-3,5C000000,-0724,0828,12204,031.6,045.6,0.471,733.2,01.19,0.508
2014-08-25 02:55:00,1715E-3,5C000000,-0724,0828,12186,031.6,045.6,0.471,733.1,01.19,0.508
2014-08-25 02:56:00,1812E-3,5C000000,-0724,0828,12254,031.7,045.6,0.471,733.2,01.19,0.508
2014-08-25 02:57:00,1940E-3,5C000000,-0724,0828,12314,031.6,045.6,0.471,733.2,01.19,0.508
2014-08-25 02:58:00,1817E-3,5C000000,-0724,0827,12216,031.7,045.6,0.471,733.3,01.19,0.508
2014-08-25 02:59:00,1813E-3,5C000000,-0724,0827,12323,031.7,045.6,0.471,733.1,01.19,0.508
2014-08-25 03:00:00,1794E-3,5C000000,-0724,0827,12142,031.7,045.6,0.471,733.2,01.19,0.508
2014-08-25 03:01:00,1854E-3,5C000000,-0724,0827,12048,031.7,045.6,0.471,733.2,01.19,0.508
2014-08-25 03:02:00,1873E-3,5C000000,-0724,0828,12213,031.7,045.6,0.471,733.3,01.19,0.508
2014-08-25 03:03:00,1710E-3,5C000000,-0724,0829,12358,031.7,045.6,0.471,733.2,01.19,0.508
2014-08-25 03:04:00,1777E-3,5C000000,-0724,0827,12073,031.7,045.6,0.471,733.2,01.19,0.508
2014-08-25 03:05:00,1770E-3,5C000000,-0724,0827,12222,031.7,045.6,0.471,733.1,01.19,0.508
2014-08-25 03:06:00,1818E-3,5C000000,-0724,0828,11937,031.7,045.6,0.471,733.1,01.19,0.508
2014-08-25 03:07:00,1851E-3,5C000000,-0724,0827,12260,031.7,045.6,0.471,733.0,01.19,0.508
2014-08-25 03:08:00,1801E-3,5C000000,-0724,0828,12325,031.7,045.6,0.471,733.3,01.19,0.508
2014-08-25 03:09:00,1828E-3,5C000000,-0724,0827,12208,031.8,045.6,0.471,733.3,01.19,0.508
2014-08-25 03:10:00,1716E-3,5C000000,-0724,0827,12286,031.8,045.6,0.471,733.2,01.19,0.508
2014-08-25 03:11:00,1588E-3,5C000000,-0724,0828,12194,031.8,045.6,0.471,733.3,01.19,0.508
2014-08-25 03:12:00,1845E-3,5C000000,-0724,0827,12268,031.8,045.6,0.471,733.2,01.19,0.508
2014-08-25 03:13:00,1768E-3,5C000000,-0724,0827,12419,031.8,045.6,0.471,733.3,01.19,0.508
2014-08-25 03:14:00,1967E-3,5C000000,-0724,0826,12312,031.8,045.6,0.471,733.2,01.19,0.508
2014-08-25 03:15:00,1771E-3,5C000000,-0724,0827,12360,031.8,045.6,0.471,733.1,01.19,0.508
2014-08-25 03:16:00,1836E-3,5C000000,-0724,0827,12168,031.8,045.6,0.471,733.2,01.19,0.508
2014-08-25 03:17:00,1787E-3,5C000000,-0724,0828,12116,031.8,045.6,0.471,733.2,01.19,0.508
2014-08-25 03:18:00,1727E-3,5C000000,-0724,0827,12307,031.9,045.6,0.471,733.3,01.19,0.508
2014-08-25 03:19:00,1806E-3,5C000000,-0724,0828,12207,031.8,045.6,0.471,733.2,01.19,0.508
2014-08-25 03:20:00,1757E-3,5C000000,-0724,0828,11942,031.9,045.6,0.470,733.2,01.19,0.508
2014-08-25 03:21:00,1818E-3,5C000000,-0724,0827,12232,031.9,045.6,0.470,733.3,01.19,0.508
2014-08-25 03:22:00,1704E-3,5C000000,-0724,0828,12258,031.9,045.6,0.470,733.3,01.19,0.508
2014-08-25 03:23:00,1766E-3,5C000000,-0724,0827,12241,031.9,045.6,0.470,733.0,01.19,0.508
2014-08-25 03:24:00,1764E-3,5C000000,-0724,0828,12193,031.9,045.6,0.470,733.3,01.19,0.508
2014-08-25 03:25:00,1831E-3,5C000000,-0724,0828,12397,031.9,045.6,0.470,733.3,01.19,0.508
2014-08-25 03:26:00,1879E-3,5C000000,-0724,0827,12370,031.9,045.6,0.470,733.3,01.19,0.508
2014-08-25 03:27:00,1657E-3,5C000000,-0724,0828,12178,031.9,045.6,0.470,733.3,01.19,0.508
2014-08-25 03:28:00,1788E-3,5C000000,-0724,0827,12182,031.9,045.6,0.470,733.2,01.19,0.508
2014-08-25 03:29:00,1890E-3,5C000000,-0724,0827,12233,031.9,045.6,0.470,733.0,01.19,0.508
2014-08-25 03:30:00,1794E-3,5C000000,-0724,0828,12313,032.0,045.6,0.470,733.1,01.19,0.508
2014-08-25 03:31:00,1812E-3,5C000000,-0724,0827,12176,032.0,045.6,0.470,733.0,01.19,0.508
2014-08-25 03:32:00,1925E-3,5C000000,-0724,0827,12171,032.0,045.6,0.470,733.1,01.19,0.508
2014-08-25 03:33:00,1834E-3,5C000000,-0724,0829,12239,032.0,045.6,0.470,733.2,01.19,0.508
2014-08-25 03:34:00,1818E-3,5C000000,-0724,0828,12134,032.0,045.6,0.470,733.2,01.19,0.508
2014-08-25 03:35:00,1732E-3,5C000000,-0724,0829,12232,032.0,045.6,0.470,733.0,01.19,0.508
2014-08-25 03:36:00,1776E-3,5C000000,-0724,0828,12326,032.0,045.6,0.470,733.0,01.19,0.508
2014-08-25 03:37:00,1792E-3,5C000000,-0724,0827,12257,032.0,045.6,0.470,733.0,01.19,0.508
2014-08-25 03:38:00,1814E-3,5C000000,-0724,0827,12332,032.0,045.6,0.470,733.0,01.19,0.508
2014-08-25 03:39:00,1685E-3,5C000000,-0724,0826,12297,032.0,045.6,0.470,732.9,01.19,0.508
2014-08-25 03:40:00,1794E-3,5C000000,-0724,0827,12393,032.0,045.6,0.470,733.0,01.19,0.508
2014-08-25 03:41:00,1869E-3,5C000000,-0724,0828,12290,032.1,045.6,0.470,733.0,01.19,0.508
2014-08-25 03:42:00,1795E-3,5C000000,-0724,0827,12355,032.1,045.6,0.470,733.0,01.19,0.508
2014-08-25 03:43:00,1769E-3,5C000000,-0724,0828,12232,032.1,045.6,0.470,733.1,01.19,0.508
2014-08-25 03:44:00,1747E-3,5C000000,-0724,0828,12222,032.1,045.6,0.470,733.0,01.19,0.508
2014-08-25 03:45:00,1716E-3,5C000000,-0724,0828,12324,032.1,045.6,0.470,732.9,01.19,0.508
2014-08-25 03:46:00,1846E-3,5C000000,-0724,0828,12251,032.1,045.6,0.470,732.8,01.19,0.508
2014-08-25 03:47:00,1860E-3,5C000000,-0724,0828,12037,032.1,045.6,0.470,732.8,01.19,0.508
2014-08-25 03:48:00,1796E-3,5C000000,-0724,0826,12060,032.1,045.6,0.470,732.9,01.19,0.508
2014-08-25 03:49:00,1776E-3,5C000000,-0724,0827,12117,032.1,045.6,0.470,732.9,01.19,0.508
2014-08-25 03:50:00,1851E-3,5C000000,-0724,0829,12323,032.2,045.6,0.470,732.9,01.19,0.508
2014-08-25 03:51:00,1849E-3,5C000000,-0724,0827,12163,032.1,045.6,0.470,733.0,01.19,0.508
2014-08-25 03:52:00,1781E-3,5C000000,-0724,0829,11987,032.1,045.6,0.470,732.8,01.19,0.508
"read_dt","SO2 (ppb)","flags","PMT voltage (V)","lamp voltage (V)","lamp intensity (Hz)","internal temp (C)","react chamber temp (C)","sample flow (l/min)","pres (mmHg)","SO2 bkg (ppb)","SO2 coefficient"
2014-08-25 07:54:00,2254E-3,5C000004,-0724,0820,12369,026.6,028.3,0.484,732.5,01.19,0.508
2014-08-25 07:55:00,2209E-3,5C000004,-0724,0822,12369,026.7,029.2,0.484,732.5,01.19,0.508
2014-08-25 07:56:00,2369E-3,5C000004,-0724,0822,12319,026.8,030.2,0.483,732.5,01.19,0.508
2014-08-25 07:57:00,2439E-3,5C000004,-0724,0822,11998,027.0,031.3,0.482,732.5,01.19,0.508
2014-08-25 07:58:00,2306E-3,5C000004,-0724,0823,12296,027.1,032.3,0.481,732.5,01.19,0.508
2014-08-25 07:59:00,2239E-3,5C000004,-0724,0823,12193,027.3,033.4,0.481,732.6,01.19,0.508
2014-08-25 08:00:00,2304E-3,5C000004,-0724,bad,12241,027.5,034.4,0.480,732.7,01.19,0.508
2014-08-25 08:01:00,2297E-3,5C000004,-0724,0824,12336,027.6,035.4,0.480,732.5,01.19,0.508
2014-08-25 08:02:00,2115E-3,5C000004,-0724,0825,12343,027.8,036.3,0.479,732.6,01.19,0.508
2014-08-25 08:03:00,2233E-3,5C000004,-0724,0825,12091,028.0,037.2,0.479,732.6,01.19,0.508
2014-08-25 08:04:00,2217E-3,5C000004,-0724,0825,12355,028.2,038.1,0.479,732.6,01.19,0.508
2014-08-25 08:05:00,2121E-3,5C000004,-0724,0825,12282,028.4,038.9,0.478,732.6,01.19,0.508
2014-08-25 08:06:00,2188E-3,5C000004,-0724,0826,12243,028.6,039.7,0.478,732.6,01.19,0.508
2014-08-25 08:07:00,2069E-3,5C000004,-0724,0826,12253,028.7,040.5,0.477,732.5,01.19,0.508
2014-08-25 08:08:00,2070E-3,5C000004,-0724,0826,12244,028.9,041.2,0.477,732.6,01.19,0.508
2014-08-25 08:09:00,2208E-3,5C000004,-0724,0826,12182,029.1,041.9,0.477,732.6,01.19,0.508
2014-08-25 08:10:00,2052E-3,5C000004,-0724,0826,12281,029.2,042.7,0.476,732.6,01.19,0.508
2014-08-25 08:11:00,2063E-3,5C000000,-0724,0827,12000,029.3,043.3,0.476,732.7,01.19,0.508
2014-08-25 08:12:00,2045E-3,5C000000,-0724,0827,11925,029.4,044.0,0.475,732.7,01.19,0.508
2014-08-25 08:13:00,1919E-3,5C000000,-0724,0827,12372,029.5,044.6,0.475,732.6,01.19,0.508
2014-08-25 08:14:00,2004E-3,5C000000,-0724,0827,12018,029.6,045.2,0.475,732.7,01.19,0.508
2014-08-25 08:15:00,1943E-3,5C000000,-0724,0828,12234,029.7,045.7,0.474,732.7,01.19,0.508
2014-08-25 08:16:00,1819E-3,5C000000,-0724,0828,12262,029.8,045.7,0.474,732.8,01.19,0.508
2014-08-25 08:17:00,1861E-3,5C000000,-0724,0827,11874,029.9,045.6,0.474,732.7,01.19,0.508
2014-08-25 08:18:00,1872E-3,5C000000,-0724,0828,12027,029.9,045.6,0.473,732.7,01.19,0.508
2014-08-25 08:19:00,1810E-3,5C000000,-0724,0827,12056,030.0,045.6,0.473,732.8,01.19,0.508